GSAT-18                 
1 41793U 16060A   19265.06958285 -.00000084  00000-0  00000+0 0  9995
2 41793   0.0346 113.1528 0001438 350.2241 356.3225  1.00271886 10867
SKY MUSTER 2            
1 41794U 16060B   19264.49077249 -.00000249  00000-0  00000+0 0  9997
2 41794   0.0165 239.6672 0001586 308.9440 132.9526  1.00271446 10893
ARIANE 5 R/B            
1 41795U 16060C   19264.46994415  .00000780  00000-0  13550-3 0  9995
2 41795   6.1003  44.3509 7218997  14.6123 358.2501  2.36752663 25206
ARIANE 5 DEB [SYLDA]    
1 41796U 16060D   19263.70351387  .00020519  00000-0  23973-2 0  9998
2 41796   6.3941 214.0383 6375961  32.3326 354.1971  3.51661731 33312